Location: Lahitte
(43.6596°N, 0.6805°E)
Time: 12:30:34
(UTC+00:00)

Daily predictions for brighter satellites

Satellite Brightness Start Highest point End
(mag) Time Altitude Azimuth Time Altitude Azimuth Time Altitude Azimuth
COSMOS 2406 3.5 19:46:49 10° SSW 19:52:29 76° WNW 19:58:14 10° NNE
BREEZE-M DEB (TANK) 3.2 19:50:00 10° SSW 19:52:53 41° SE 20:00:31 10° ENE
Meteor 2-13 Rocket 4.4 19:47:58 10° S 19:54:03 76° E 20:00:08 10° NNE
Cosmos 2322 Rocket 4.2 19:51:16 10° N 19:54:33 15° NE 19:57:48 10° E
IRS-1A Rocket 4.3 19:49:59 10° SSE 19:55:26 64° ENE 20:00:52 10° N
CZ-4 R/B 4.4 19:53:17 10° SW 19:55:43 15° W 19:58:10 10° NW
Cosmos 1689 Rocket 2.9 19:54:39 10° N 19:57:22 50° WNW 20:00:01 10° SSW
USA 32 4.5 19:53:14 10° N 19:58:27 67° W 20:03:38 10° S
BREEZE-M DEB (TANK) 3.7 19:56:33 10° WNW 19:59:23 53° NNE 20:06:46 10° E
MOS 1 4.3 19:54:05 10° SSE 19:59:43 72° ENE 20:05:21 10° N
Resurs 01 Rocket 2.2 19:59:16 10° SE 20:03:26 42° ENE 20:07:38 10° N
Cosmos 2151 4.1 20:01:34 10° SE 20:05:01 25° E 20:08:30 10° NE
Cosmos 44 Rocket 4.1 20:00:43 10° SW 20:05:52 63° NW 20:11:05 10° NNE
Cosmos 2098 Rocket 3.0 20:03:31 10° SSE 20:06:18 34° E 20:09:31 10° NNE
ERS-2 2.3 20:03:13 10° NNE 20:06:47 49° E 20:10:18 10° S
Gbstr 26 Del rocket 4.2 20:04:54 10° NW 20:08:15 30° NNE 20:11:44 10° E
USA 186 4.0 20:09:46 10° SSW 20:12:18 23° W 20:14:42 10° NW
Cosmos 2180 Rocket 4.5 20:06:31 10° N 20:12:43 83° E 20:18:50 10° S
Ariane Rocket 3.0 20:12:41 10° SSE 20:17:46 89° WSW 20:22:52 10° NNW
SL-16 R/B 3.4 20:18:43 10° N 20:23:39 29° NE 20:28:03 12° ESE
Centaur D AC-28 4.5 20:21:26 10° SW 20:27:04 32° SSE 20:49:34 10° E
Cosmos 1782 4.4 20:25:03 10° NNE 20:28:02 20° ENE 20:30:03 14° ESE
Cosmos 371 Rocket 3.3 20:23:53 10° NNW 20:28:42 68° ENE 20:32:51 14° SSE
ARIANE 5 R/B 4.1 20:26:51 13° ESE 20:29:44 24° ENE 20:33:17 10° NNE
Cosmos 1271 Rocket 3.8 20:31:07 10° N 20:34:41 30° ENE 20:36:55 18° SE
SPOT 1/Viking Rocket 3.8 20:31:18 13° SE 20:35:44 55° ENE 20:40:50 10° N
USA 276 3.4 20:32:57 10° NW 20:35:55 35° NNE 20:38:32 12° E
BREEZE-M DEB (TANK) 2.6 20:34:18 10° WNW 20:37:10 69° NNE 20:43:14 13° ESE
Cosmos 1076 Rocket 3.6 20:32:59 10° S 20:37:19 83° W 20:41:43 10° N
Atlas Centaur 2 3.3 20:36:28 10° SSW 20:38:13 12° S 20:39:03 12° S
Cosmos 1697 Rocket 4.1 20:34:54 10° NW 20:39:58 35° WSW 20:45:02 10° SSW
OBJECT-B 3.7 20:38:35 10° SW 20:40:18 14° W 20:42:03 10° WNW
Cosmos 1151 Rocket 4.4 20:38:09 10° NNE 20:41:41 24° ENE 20:43:40 17° ESE
ATLAS 2AS CENTAUR R/B 4.0 20:35:47 10° WSW 20:43:28 52° NW 20:50:59 10° NNE
Cosmos 923 Rocket 4.4 20:41:32 10° S 20:46:33 43° ESE 20:51:35 10° NNE
Terra 3.3 20:47:56 16° ESE 20:50:21 24° ENE 20:54:06 10° NNE
ATLAS 3B R/B 2.9 20:43:44 10° NW 20:50:53 81° WSW 20:56:42 18° SSE
SPOT 5 3.6 20:50:48 20° ESE 20:52:55 31° ENE 20:56:46 10° N
Cosmos 2082 Rocket 3.4 20:49:31 10° SW 20:54:54 46° WNW 21:00:21 10° NNE
Cosmos 1092 Rocket 4.0 20:49:00 10° S 20:55:12 70° E 21:01:29 10° NNE
Meteor 2-19 Rocket 4.4 20:49:17 10° S 20:55:19 80° E 21:01:24 10° N
USA 267 4.2 20:51:02 10° ENE 20:56:04 23° SE 20:59:02 17° SSE
Cosmos 1633 4.0 20:53:23 10° SSW 20:56:45 37° WNW 21:00:09 10° N
Cosmos 2278 4.2 20:54:29 10° NNW 21:00:02 57° WSW 21:04:38 15° S
BREEZE-M DEB (TANK) 3.8 20:58:57 10° W 21:01:25 28° NNW 21:03:07 10° NE
ERS-1 Rocket 3.5 21:00:35 23° SE 21:03:16 44° ENE 21:08:01 10° N
Cosmos 332 Rocket 3.8 21:01:07 10° NNW 21:06:03 89° SW 21:08:58 25° SSE
Cosmos 158 Rocket 4.1 21:01:17 10° SSW 21:06:24 77° WNW 21:11:43 10° NNE
Cosmos 2360 Rocket 3.4 21:02:08 10° N 21:07:01 29° NE 21:10:08 18° E
Cosmos 2026 Rocket 4.0 21:02:19 12° S 21:08:11 71° E 21:14:26 10° NNE
GP-B 3.0 21:09:25 10° N 21:13:51 73° E 21:16:14 27° S
ISS -3.7 21:11:50 10° WNW 21:15:11 65° SW 21:15:56 47° SSE
Cosmos 2333 Rocket 4.0 21:13:18 10° N 21:17:18 19° NE 21:20:38 12° E
Spot 2 Rocket 3.5 21:14:48 26° SSE 21:17:48 85° ENE 21:22:56 10° NNW
SPOT 3 Rocket 4.4 21:14:07 13° S 21:18:38 47° W 21:23:42 10° NNW
Meteor 1-26 Rocket 4.3 21:14:17 10° N 21:20:15 88° W 21:23:54 24° S
Cosmos 2112 Rocket 4.1 21:17:49 22° S 21:21:08 56° ESE 21:26:18 10° NNE
Cosmos 1680 Rocket 3.5 21:17:27 16° S 21:21:37 67° ESE 21:26:50 10° NNE
Cosmos 1812 3.4 21:18:50 10° N 21:22:27 37° ENE 21:23:03 35° E
Cosmos 220 Rocket 4.5 21:20:20 10° N 21:24:32 47° ENE 21:25:50 35° ESE
CZ-2C R/B 4.2 21:21:18 10° N 21:25:46 59° WNW 21:30:08 10° SSW
Okean 3 Rocket 3.6 21:24:58 34° SSE 21:26:48 66° E 21:31:17 10° NNE
Cosmos 1980 Rocket 3.8 21:23:33 10° NW 21:28:13 27° WSW 21:32:51 10° SSW
USA 245 4.2 21:25:06 21° S 21:28:28 58° WSW 21:32:45 10° NNW
Cosmos 2322 Rocket 2.1 21:33:52 10° NNW 21:39:32 81° ENE 21:41:46 38° SSE
Resurs 01 Rocket 3.9 21:36:53 10° SW 21:40:06 19° W 21:43:20 10° NW
Cosmos 1408 Rocket 3.8 21:40:12 44° ESE 21:40:41 47° E 21:44:52 10° NNE
Meteor 2-14 Rocket 4.4 21:43:59 30° S 21:47:14 78° E 21:53:24 10° N
CARTOSAT-1 4.4 21:46:36 28° SSW 21:48:26 44° W 21:52:35 10° NNW
Cosmos 2084 3.2 21:48:52 38° SSW 21:50:21 85° ESE 21:54:31 10° NE
Cosmos 1553 Rocket 3.9 21:46:53 10° N 21:52:59 89° E 21:55:36 37° S
Cosmos 2266 Rocket 4.2 21:53:29 39° SE 21:55:14 50° E 22:01:12 10° NNE
Gbstr 26 Del rocket 2.6 21:51:28 10° WNW 21:55:15 70° SW 21:55:26 69° SSW
Cosmos 1862 3.1 21:57:03 71° S 21:57:29 89° E 22:01:28 10° N
Cosmos 2219 Rocket 3.4 21:56:03 10° N 22:00:59 31° NE 22:02:58 25° E
Cosmos 1624 Rocket 3.9 21:56:24 10° NNW 22:01:39 87° ENE 22:02:57 52° SSE
Cosmos 1782 4.3 22:00:48 10° NNW 22:04:23 31° W 22:05:38 26° SW
NOSS 2-1 (E) 3.6 22:05:22 48° NNE 22:05:22 48° NNE 22:07:56 10° NE
ARIANE 5 R/B 3.8 22:04:24 27° SW 22:05:59 36° W 22:10:07 10° NNW
Cosmos 2228 Rocket 4.2 22:02:06 10° NNE 22:06:03 31° ENE 22:06:05 31° ENE
Cosmos 1515 Rocket 3.4 22:01:51 10° N 22:06:19 78° E 22:06:43 70° SE
H-2A R/B 3.3 22:02:54 10° NNE 22:07:07 74° ESE 22:07:15 73° ESE
SL-16 R/B 2.8 22:02:32 10° NW 22:07:56 47° WSW 22:09:55 33° SSW
COSMOS 2455 3.2 22:09:10 43° ESE 22:09:26 43° ESE 22:15:04 10° NE
NOSS 3-1 (C) 4.4 22:02:41 10° NNW 22:10:01 58° NE 22:14:30 29° ESE
USA 276 3.9 22:09:08 10° WNW 22:10:46 26° W 22:10:46 26° W
Cosmos 2237 4.2 22:06:31 10° NNW 22:12:14 75° WSW 22:13:45 50° S
Cosmos 1420 Rocket 4.0 22:07:19 10° NNW 22:12:40 73° ENE 22:13:43 56° SE
Cosmos 1655 Rocket 3.9 22:12:44 43° S 22:15:02 81° E 22:21:27 10° N
COSMOS 2428 3.8 22:10:37 10° N 22:15:46 33° NE 22:17:35 27° E
Meteor 2-6 Rocket 4.3 22:11:59 10° NNW 22:17:20 64° W 22:18:52 44° SSW
Cosmos 1151 Rocket 4.5 22:15:24 10° NNW 22:19:14 31° W 22:20:31 26° WSW
S3M 4.0 22:16:54 10° N 22:23:18 81° W 22:25:25 45° S
ATLAS 5 CENTAUR R/B 3.6 22:22:38 10° NNW 22:27:29 31° NE 22:30:39 20° E
Terra 2.7 22:26:49 36° SW 22:27:50 41° W 22:32:21 10° NNW
SPOT 5 4.2 22:30:02 22° WSW 22:31:02 24° W 22:34:38 10° NW
Cosmos 1452 Rocket 3.8 22:27:00 10° NNW 22:32:10 55° ENE 22:32:49 51° E
ALOS 2 4.1 22:33:57 26° ENE 22:33:57 26° ENE 22:37:36 10° N
USA 267 3.1 22:33:05 10° NE 22:39:40 84° SE 22:46:07 10° SW
SL-27 R/B 4.0 22:39:50 31° WNW 22:40:04 32° WNW 22:43:20 10° N
Cosmos 2056 Rocket 4.2 22:36:38 10° NNW 22:41:40 42° WSW 22:42:28 40° SW
Meteor 1-27 Rocket 3.6 22:37:40 10° NNW 22:43:20 84° W 22:44:14 65° S
NOSS 3-1 (A) 4.4 22:37:21 10° NNW 22:44:43 59° NE 22:48:48 32° ESE
Cosmos 1805 Rocket 3.8 22:49:13 66° NE 22:49:13 66° NE 22:53:07 10° N
Cosmos 2360 Rocket 2.7 22:45:51 10° NW 22:51:13 46° WSW 22:51:53 44° SW
IRIDIUM 104 4.2 22:46:40 10° N 22:51:55 82° W 22:52:18 75° SSW
Meteor 1-20 Rocket 4.1 22:54:51 67° ESE 22:55:07 68° E 23:00:46 10° NNE
Cosmos 1110 Rocket 4.5 22:53:02 10° N 22:58:12 48° ENE 22:58:40 47° E
Cosmos 1500 Rocket 4.4 22:59:40 43° W 22:59:52 43° WNW 23:04:07 10° N
IRIDIUM 114 4.4 22:55:51 10° N 23:01:02 68° W 23:01:25 65° WSW
Cosmos 2333 Rocket 2.0 22:56:35 10° NNW 23:02:15 79° WSW 23:02:38 74° SSW
Meteor 1-22 4.4 23:03:01 81° S 23:03:18 89° E 23:08:50 10° N
Cosmos 1331 Rocket 4.5 22:58:33 10° N 23:03:38 48° ENE 23:03:58 47° ENE
Cosmos 1244 Rocket 4.4 23:03:47 61° ESE 23:04:24 65° E 23:10:31 10° NNE
Cosmos 972 Rocket 4.3 23:07:27 56° WSW 23:08:13 63° WNW 23:13:15 10° NNE
COBE Rocket 4.0 23:09:07 61° WNW 23:09:07 61° WNW 23:13:27 10° NNW
Cosmos 2322 3.7 23:06:46 10° NNW 23:12:28 69° WSW 23:12:44 68° SW
USA 234 3.4 23:10:02 37° ESE 23:12:47 69° NE 23:19:19 10° NW
NOSS 0 Rocket 4.3 23:08:34 10° NNW 23:14:43 55° ENE 23:16:01 47° E
Cosmos 2297 Rocket 3.4 23:17:12 28° E 23:17:12 28° E 23:21:03 10° NE
Cosmos 468 4.4 23:16:08 77° W 23:16:16 77° WNW 23:21:32 10° NNE
Lacrosse 5 3.7 23:21:59 20° ENE 23:21:59 20° ENE 23:23:47 10° ENE
Cosmos 2322 Rocket 4.2 23:19:51 10° WNW 23:22:47 14° W 23:23:35 14° WSW
Cosmos 2237 Rocket 3.1 23:17:30 10° NNW 23:22:52 40° ENE 23:24:02 36° E
Meteor 1-18 Rocket 4.2 23:20:45 10° N 23:26:37 72° ENE 23:26:57 70° ESE
Cosmos 2227 Rocket 3.5 23:28:53 26° E 23:28:53 26° E 23:32:38 10° NE
Sich 1 3.8 23:28:46 47° NW 23:28:46 47° NW 23:32:27 10° N
Meteor 1-25 Rocket 4.3 23:30:16 62° WSW 23:30:45 65° WNW 23:36:18 10° N
Cosmos 2285 Rocket 4.1 23:25:52 10° NNW 23:32:02 58° WSW 23:32:33 56° SW
Cosmos 1633 Rocket 3.7 23:33:06 52° NNE 23:33:06 52° NNE 23:36:27 10° N
Okean 1 4.4 23:29:01 10° N 23:31:46 42° NNW 23:31:46 42° NNW
Cosmos 494 Rocket 4.1 23:33:16 68° WNW 23:33:16 68° WNW 23:38:23 10° NNE
Cosmos 1666 Rocket 4.2 23:37:06 55° NNW 23:37:06 55° NNW 23:40:42 10° N
Cosmos 2219 Rocket 2.8 23:39:48 10° NW 23:44:40 42° W 23:44:40 42° W
SL-08 R/B 4.3 23:45:17 74° SSW 23:45:53 84° W 23:52:05 10° N
Cosmos 1269 Rocket 4.4 23:50:05 56° ENE 23:50:05 56° ENE 23:54:38 10° NNE
Meteor 1-19 Rocket 4.3 23:44:04 10° NNW 23:49:32 62° W 23:49:32 62° W
SL-16 R/B 4.0 23:45:18 10° N 23:49:58 25° NE 23:52:42 18° E
